Home   Weather   Eau Claire   Past weeks

Flag for USA Past Weather in Eau Claire, Wisconsin, USA — Yesterday and Last 2 Weeks

46 °F


Feels Like: 42 °F
Forecast: 36 / 55 °F
Wind: 8 mph from North

Location: Eau Claire County Airport

Current Time: Oct 23, 2016 at 10:30:00 PM

Latest Report: Oct 23, 2016 at 9:56 PM

Visibility: 10 mi

Pressure: 30.22 "Hg

Humidity: 79%

Dew Point: 40 °F

Location of Eau ClaireLocation

Past Weather in Eau Claire — Graph


Eau Claire Temperature Yesterday

Maximum temperature yesterday: 63 °F (at 3:56 PM)
Minimum temperature yesterday: 39 °F (at 7:56 AM)
Average temperature yesterday: 48 °F

High & Low Weather Summary for the Past Weeks

High75 °F (Oct 17, 1:56 PM)100% (Oct 9, 1:56 AM)30.44 "Hg (Oct 9, 1:56 AM)
Low29 °F (Oct 9, 4:56 AM)36% (Oct 10, 3:56 PM)29.26 "Hg (Oct 17, 6:03 PM)
Average52 °F74%30.00 "Hg
* Reported Oct 8 8:56 PM — Oct 23 8:56 PM, Eau Claire, Weather by CustomWeather, © 2016

Note: Actual official high and low records may vary slightly from our data, if they occured in-between our weather recording intervals... More about our weather records


Eau Claire Weather History for the Previous 24 Hours

Scroll right to see more
Time TempWeatherWind HumidityBarometerVisibility
8:56 PM
Sun, Oct 23
49 °FOvercast.14 mph74%30.18 "Hg10 mi
7:56 PM48 °FPassing clouds.7 mph74%30.15 "Hg10 mi
6:56 PM50 °FPassing clouds.6 mph71%30.12 "Hg10 mi
5:56 PM53 °FOvercast.9 mph69%30.08 "Hg10 mi
4:56 PM53 °FOvercast.12 mph69%30.05 "Hg10 mi
3:56 PM52 °FOvercast.16 mph69%30.02 "Hg10 mi
2:56 PM52 °FMostly cloudy.15 mph69%29.98 "Hg10 mi
1:56 PM53 °FPartly sunny.18 mph64%29.94 "Hg10 mi
12:56 PM59 °FSunny.21 mph54%29.88 "Hg10 mi
11:56 AM57 °FSunny.17 mph60%29.85 "Hg10 mi
10:56 AM54 °FSunny.15 mph67%29.83 "Hg10 mi
9:56 AM51 °FSunny.17 mph77%29.83 "Hg10 mi
8:56 AM46 °FSunny.No wind89%29.83 "Hg10 mi
7:56 AM37 °FSunny.No wind100%29.83 "Hg7 mi
6:56 AM39 °FClear.No wind96%29.84 "Hg10 mi
5:56 AM36 °FFog.No wind100%29.86 "Hg5 mi
4:56 AM34 °FFog.6 mph100%29.89 "Hg2 mi
4:04 AM35 °FFog.3 mph100%29.90 "Hg1 mi
3:00 AM37 °FFog.No wind96%29.91 "Hg1 mi
1:56 AM37 °FFog.No wind100%29.95 "Hg0 mi
12:56 AM39 °FFog.No wind100%29.96 "Hg1 mi
11:56 PM
Sat, Oct 22
39 °FFog.No wind100%29.97 "Hg6 mi
10:56 PM42 °FFog.No wind92%29.97 "Hg3 mi
Weather by CustomWeather, © 2016

See weather overviewHow to use our weather pages